FW4212 Weather Reports


Display with metric or nautical units.
time (UTC)temp
F
wind
direction
speed
MPH
gust
MPH
rain 1hr
in
rain 24hr
in
rain mn
in
humidity
%
barometer
mb
20260906023021 73 263 0.0 1.0 0.00 0.00 0.00 92 1013.2
20260906022517 73 263 0.0 0.0 0.00 0.00 0.00 92 1013.4
20260906022017 73 263 0.0 0.0 0.00 0.00 0.00 92 1013.2
20260906021517 73 263 0.0 0.0 0.00 0.00 0.00 92 1013.2
20260906021019 73 263 0.0 0.0 0.00 0.00 0.00 91 1013.0
20260906020516 73 263 0.0 0.0 0.00 0.00 0.00 91 1013.2
20260906020017 73 263 0.0 0.0 0.00 0.00 0.00 91 1013.2
20260906015515 73 263 0.0 0.0 0.00 0.00 0.00 91 1013.1
20260906015015 73 263 0.0 0.0 0.00 0.00 0.00 91 1012.9
20260906014521 73 263 0.0 0.0 0.00 0.00 0.00 90 1013.0
20260906014016 73 263 0.0 0.0 0.00 0.00 0.00 89 1013.0
20260906013515 74 263 0.0 1.0 0.00 0.00 0.00 89 1013.2
20260906013023 74 263 0.0 1.0 0.00 0.00 0.00 88 1013.1
20260906012515 74 263 0.0 0.0 0.00 0.00 0.00 88 1012.9
20260906012017 75 263 0.0 0.0 0.00 0.00 0.00 87 1012.7
20260906011519 75 263 0.0 0.0 0.00 0.00 0.00 87 1012.7
20260906011014 75 262 0.0 0.0 0.00 0.00 0.00 88 1012.6
20260906010515 75 263 0.0 0.0 0.00 0.00 0.00 88 1012.6
20260906010015 75 263 0.0 1.0 0.00 0.00 0.00 88 1012.5
20260906005518 75 263 0.0 1.0 0.00 0.00 0.00 88 1012.5
20260906005015 75 263 0.0 2.0 0.00 0.00 0.00 87 1012.6
20260906004514 75 263 0.0 2.0 0.00 0.00 0.00 87 1012.6
20260906004016 75 263 0.0 0.0 0.00 0.00 0.00 87 1012.5
20260906003513 75 263 0.0 0.0 0.00 0.00 0.00 86 1012.4
20260906003013 75 263 0.0 0.0 0.00 0.00 0.00 86 1012.4
20260906002514 76 263 0.0 0.0 0.00 0.00 0.00 85 1012.1
20260906002013 76 262 0.0 0.0 0.00 0.00 0.00 84 1012.0
20260906001513 76 263 0.0 0.0 0.00 0.00 0.00 83 1012.0
20260906001012 76 263 0.0 0.0 0.00 0.00 0.00 83 1012.0
20260906000513 76 263 0.0 0.0 0.00 0.00 0.00 83 1011.8
20260906000012 76 263 0.0 0.0 0.00 0.00 0.00 82 1011.7
20260905235512 77 263 0.0 0.0 0.00 0.00 0.00 82 1011.7
20260905235012 77 263 0.0 0.0 0.00 0.00 0.00 81 1011.7
20260905234511 77 263 0.0 0.0 0.00 0.00 0.00 80 1011.7
20260905234011 77 263 0.0 0.0 0.00 0.00 0.00 80 1011.6
20260905233512 78 263 0.0 0.0 0.00 0.00 0.00 79 1011.6
20260905233015 78 263 0.0 0.0 0.00 0.00 0.00 78 1011.7
20260905232514 78 263 0.0 1.0 0.00 0.00 0.00 77 1011.7
20260905232011 80 263 0.0 2.0 0.00 0.00 0.00 75 1011.7
20260905231511 80 263 0.0 4.0 0.00 0.00 0.00 74 1011.5
20260905231014 80 254 1.0 4.0 0.00 0.00 0.00 73 1011.5
20260905230511 80 258 0.0 2.0 0.00 0.00 0.00 75 1011.5
20260905230013 80 274 0.0 3.0 0.00 0.00 0.00 77 1011.7
20260905225511 80 244 0.0 0.0 0.00 0.00 0.00 76 1011.5
20260905225010 80 244 0.0 2.0 0.00 0.00 0.00 75 1011.4
20260905224510 81 234 0.0 2.0 0.00 0.00 0.00 73 1011.4
20260905224009 81 274 0.0 2.0 0.00 0.00 0.00 72 1011.6
20260905223509 81 274 0.0 3.0 0.00 0.00 0.00 72 1011.8
20260905223009 81 323 0.0 4.0 0.00 0.00 0.00 72 1011.9
20260905222610 82 267 0.0 4.0 0.00 0.00 0.00 71 1011.7
20260905222008 82 271 0.0 3.0 0.00 0.00 0.00 71 1011.9
20260905221513 82 258 1.0 4.0 0.00 0.00 0.00 70 1011.8
20260905221009 81 238 2.0 6.0 0.00 0.00 0.00 71 1011.8
20260905220508 82 271 1.0 6.0 0.00 0.00 0.00 70 1011.8
20260905220113 81 287 1.0 5.0 0.00 0.00 0.00 72 1011.8
20260905215507 81 273 0.0 0.0 0.00 0.00 0.00 74 1012.0
20260905215007 81 273 0.0 0.0 0.00 0.00 0.00 72 1012.0
20260905214507 82 273 0.0 4.0 0.00 0.00 0.00 72 1012.0
20260905214007 82 190 1.0 4.0 0.00 0.00 0.00 71 1012.1
20260905213512 81 202 1.0 3.0 0.00 0.00 0.00 70 1012.1
20260905213007 82 269 0.0 2.0 0.00 0.00 0.00 74 1012.2
20260905212510 81 269 0.0 2.0 0.00 0.00 0.00 74 1012.3
20260905212006 81 259 0.0 3.0 0.00 0.00 0.00 72 1012.2
20260905211517 81 256 0.0 3.0 0.00 0.00 0.00 74 1012.1
20260905211006 81 225 0.0 3.0 0.00 0.00 0.00 73 1012.1
20260905210506 81 225 0.0 4.0 0.00 0.00 0.00 74 1012.1
20260905210107 81 208 1.0 4.0 0.00 0.00 0.00 72 1012.0
20260905205505 81 205 1.0 3.0 0.00 0.00 0.00 71 1012.3
20260905205005 81 214 0.0 4.0 0.00 0.00 0.00 72 1012.2
20260905204505 81 227 1.0 4.0 0.00 0.00 0.00 72 1012.2
20260905204005 80 225 0.0 2.0 0.00 0.00 0.00 75 1012.3
20260905203505 80 229 0.0 1.0 0.00 0.00 0.00 74 1012.3
20260905203005 79 229 0.0 2.0 0.00 0.00 0.00 77 1012.4
20260905202506 79 229 0.0 2.0 0.00 0.00 0.00 78 1012.2
20260905202004 79 273 0.0 5.0 0.00 0.00 0.00 79 1012.2
20260905201505 79 225 2.0 5.0 0.00 0.00 0.00 78 1012.2
20260905201004 79 223 1.0 4.0 0.00 0.00 0.00 77 1012.3
20260905200504 79 224 0.0 2.0 0.00 0.00 0.00 76 1012.3
20260905200109 79 225 0.0 3.0 0.00 0.00 0.00 76 1012.4
20260905195503 79 211 0.0 3.0 0.00 0.00 0.00 75 1012.4
20260905195004 79 208 0.0 2.0 0.00 0.00 0.00 75 1012.4
20260905194503 79 251 0.0 0.0 0.00 0.00 0.00 75 1012.5
20260905194003 79 251 0.0 1.0 0.00 0.00 0.00 76 1012.5
20260905193503 80 251 0.0 2.0 0.00 0.00 0.00 76 1012.3
20260905193113 80 251 0.0 2.0 0.00 0.00 0.00 75 1012.3
20260905192502 80 308 0.0 2.0 0.00 0.00 0.00 77 1012.2
20260905192003 79 275 0.0 2.0 0.00 0.00 0.00 77 1012.4
20260905191502 79 325 0.0 3.0 0.00 0.00 0.00 78 1012.5
20260905191002 79 247 0.0 3.0 0.00 0.00 0.00 79 1012.3
20260905190501 79 236 0.0 4.0 0.00 0.00 0.00 78 1012.2
20260905185501 79 304 1.0 2.0 0.00 0.00 0.00 78 1012.5
20260905185001 79 77 0.0 0.0 0.00 0.00 0.00 78 1012.0
20260905184504 79 77 0.0 0.0 0.00 0.00 0.00 81 1011.8
20260905184100 79 77 0.0 0.0 0.00 0.00 0.00 82 1011.8
20260905183600 80 77 0.0 0.0 0.00 0.00 0.00 79 1011.9
20260905183102 79 77 0.0 2.0 0.00 0.00 0.00 81 1011.7
20260905182559 80 77 0.0 2.0 0.00 0.00 0.00 81 1011.8
20260905182059 80 140 0.0 2.0 0.00 0.00 0.00 81 1011.9
20260905181558 80 275 0.0 1.0 0.00 0.00 0.00 83 1012.3
20260905181059 80 275 0.0 2.0 0.00 0.00 0.00 83 1012.7
20260905180558 79 275 0.0 2.0 0.00 0.00 0.00 83 1012.9
20260905180057 79 281 0.0 2.0 0.00 0.00 0.00 82 1012.9
20260905175558 80 260 0.0 2.0 0.00 0.00 0.00 82 1012.7
20260905175055 80 239 1.0 4.0 0.00 0.00 0.00 81 1012.8
20260905174558 81 217 2.0 4.0 0.00 0.00 0.00 76 1012.8
20260905174054 83 258 0.0 8.0 0.00 0.00 0.00 74 1013.4
20260905173554 85 234 1.0 8.0 0.00 0.00 0.00 70 1013.4
20260905173053 86 284 1.0 4.0 0.00 0.00 0.00 68 1013.6
20260905172554 87 294 1.0 3.0 0.00 0.00 0.00 64 1013.4
20260905172054 88 306 0.0 3.0 0.00 0.00 0.00 66 1013.2
20260905171559 89 302 0.0 3.0 0.00 0.00 0.00 67 1013.4
20260905171056 89 307 0.0 4.0 0.00 0.00 0.00 62 1013.4
20260905170553 89 213 1.0 3.0 0.00 0.00 0.00 65 1013.4
20260905170053 90 265 0.0 6.0 0.00 0.00 0.00 63 1013.3
20260905165552 91 244 2.0 6.0 0.00 0.00 0.00 63 1013.5
20260905165052 90 227 1.0 5.0 0.00 0.00 0.00 61 1013.6
20260905164552 90 286 0.0 5.0 0.00 0.00 0.00 64 1013.6
20260905164052 90 223 1.0 6.0 0.00 0.00 0.00 59 1013.5
20260905163552 90 255 1.0 7.0 0.00 0.00 0.00 59 1013.5
20260905163054 91 227 3.0 7.0 0.00 0.00 0.00 58 1013.5
20260905162554 91 343 0.0 8.0 0.00 0.00 0.00 65 1013.6
20260905162049 90 257 2.0 5.0 0.00 0.00 0.00 62 1013.7
20260905161549 90 239 2.0 5.0 0.00 0.00 0.00 62 1013.7
20260905161048 90 236 1.0 4.0 0.00 0.00 0.00 60 1013.8
20260905160548 90 227 0.0 4.0 0.00 0.00 0.00 60 1014.0
20260905160048 90 56 1.0 4.0 0.00 0.00 0.00 60 1014.1
20260905155546 90 239 0.0 4.0 0.00 0.00 0.00 62 1014.2
20260905155045 89 105 0.0 4.0 0.00 0.00 0.00 64 1014.2
20260905154557 89 247 1.0 5.0 0.00 0.00 0.00 64 1013.9
20260905154047 89 199 1.0 4.0 0.00 0.00 0.00 65 1014.0
20260905153544 89 242 0.0 2.0 0.00 0.00 0.00 64 1014.1
20260905153044 88 309 0.0 2.0 0.00 0.00 0.00 63 1013.9
20260905152544 89 268 0.0 4.0 0.00 0.00 0.00 63 1014.0
20260905152042 88 268 2.0 4.0 0.00 0.00 0.00 62 1013.9
20260905151541 88 44 0.0 1.0 0.00 0.00 0.00 66 1013.9
20260905151040 87 44 0.0 2.0 0.00 0.00 0.00 70 1013.9
20260905150541 87 198 0.0 4.0 0.00 0.00 0.00 69 1013.9
20260905150040 87 211 0.0 3.0 0.00 0.00 0.00 73 1014.1
20260905145538 87 266 0.0 3.0 0.00 0.00 0.00 71 1014.1
20260905145037 87 294 0.0 2.0 0.00 0.00 0.00 70 1013.9
20260905144536 86 227 0.0 2.0 0.00 0.00 0.00 73 1013.9
20260905144035 86 213 0.0 3.0 0.00 0.00 0.00 72 1013.9
20260905143534 86 211 0.0 3.0 0.00 0.00 0.00 75 1014.0
20260905143033 85 205 0.0 3.0 0.00 0.00 0.00 75 1014.2
20260905142532 85 210 1.0 3.0 0.00 0.00 0.00 77 1014.2
20260905142032 84 267 0.0 3.0 0.00 0.00 0.00 76 1014.2
20260905141530 84 241 0.0 3.0 0.00 0.00 0.00 78 1014.2
20260905141032 83 286 1.0 4.0 0.00 0.00 0.00 78 1014.1
20260905140532 83 225 0.0 5.0 0.00 0.00 0.00 79 1014.1
20260905140028 82 215 2.0 5.0 0.00 0.00 0.00 80 1014.1
20260905135527 83 229 1.0 4.0 0.00 0.00 0.00 80 1014.0
20260905135026 82 265 0.0 2.0 0.00 0.00 0.00 81 1014.2
20260905134535 82 328 0.0 2.0 0.00 0.00 0.00 82 1014.2
20260905134024 81 298 0.0 2.0 0.00 0.00 0.00 83 1014.3
20260905133524 81 339 0.0 1.0 0.00 0.00 0.00 82 1014.3
20260905133021 81 270 0.0 3.0 0.00 0.00 0.00 84 1014.4
20260905132520 80 282 0.0 3.0 0.00 0.00 0.00 85 1014.4
20260905132020 80 331 0.0 1.0 0.00 0.00 0.00 85 1014.5
20260905131518 79 292 0.0 3.0 0.00 0.00 0.00 87 1014.4
20260905131018 79 292 0.0 3.0 0.00 0.00 0.00 87 1014.5
20260905130520 78 297 0.0 0.0 0.00 0.00 0.00 88 1014.5
20260905130016 78 297 0.0 0.0 0.00 0.00 0.00 89 1014.7
20260905125513 77 302 0.0 1.0 0.00 0.00 0.00 89 1014.6
20260905125015 77 271 0.0 1.0 0.00 0.00 0.00 90 1014.6
20260905124516 76 308 0.0 1.0 0.00 0.00 0.00 92 1014.8
20260905124010 76 275 0.0 0.0 0.00 0.00 0.00 91 1014.7
20260905123509 75 275 0.0 0.0 0.00 0.00 0.00 92 1014.6
20260905123009 75 275 0.0 0.0 0.00 0.00 0.00 92 1014.6
20260905122513 74 275 0.0 0.0 0.00 0.00 0.00 94 1014.6
20260905122012 74 275 0.0 0.0 0.00 0.00 0.00 94 1014.6
20260905121509 74 275 0.0 1.0 0.00 0.00 0.00 95 1014.5
20260905121009 73 275 0.0 1.0 0.00 0.00 0.00 96 1014.4
20260905120509 72 275 0.0 0.0 0.00 0.00 0.00 96 1014.4
20260905120017 72 275 0.0 0.0 0.00 0.00 0.00 96 1014.3
20260905115507 72 275 0.0 1.0 0.00 0.00 0.00 97 1014.3
20260905115007 71 275 0.0 1.0 0.00 0.00 0.00 97 1014.2
20260905114506 71 275 0.0 0.0 0.00 0.00 0.00 97 1014.1
20260905114007 71 275 0.0 0.0 0.00 0.00 0.00 97 1014.1
20260905113507 70 275 0.0 0.0 0.00 0.00 0.00 96 1014.2
20260905113006 70 275 0.0 0.0 0.00 0.00 0.00 97 1014.1
20260905112506 70 275 0.0 0.0 0.00 0.00 0.00 97 1014.1
20260905112007 70 275 0.0 0.0 0.00 0.00 0.00 96 1014.0
20260905111506 70 275 0.0 0.0 0.00 0.00 0.00 96 1013.9
20260905111010 70 275 0.0 0.0 0.00 0.00 0.00 96 1014.0
20260905110506 70 275 0.0 0.0 0.00 0.00 0.00 96 1013.9
20260905110005 70 275 0.0 0.0 0.00 0.00 0.00 96 1013.6
20260905105508 70 275 0.0 2.0 0.00 0.00 0.00 97 1013.6
20260905105004 70 275 0.0 2.0 0.00 0.00 0.00 96 1013.6
20260905104503 70 275 0.0 1.0 0.00 0.00 0.00 96 1013.6
20260905104004 70 275 0.0 0.0 0.00 0.00 0.00 96 1013.6
20260905103503 70 275 0.0 0.0 0.00 0.00 0.00 96 1013.5
20260905103005 70 275 0.0 0.0 0.00 0.00 0.00 96 1013.4
20260905102502 70 275 0.0 0.0 0.00 0.00 0.00 96 1013.5
20260905102002 70 275 0.0 0.0 0.00 0.00 0.00 96 1013.5
20260905101502 70 275 0.0 0.0 0.00 0.00 0.00 96 1013.5
20260905101002 70 275 0.0 0.0 0.00 0.00 0.00 96 1013.5
20260905100502 71 275 0.0 0.0 0.00 0.00 0.00 96 1013.5
20260905100002 70 275 0.0 0.0 0.00 0.00 0.00 96 1013.4
20260905095503 71 275 0.0 0.0 0.00 0.00 0.00 96 1013.4
20260905095002 71 275 0.0 0.0 0.00 0.00 0.00 96 1013.4
20260905094500 71 275 0.0 1.0 0.00 0.00 0.00 96 1013.3
20260905094000 71 275 0.0 1.0 0.00 0.00 0.00 96 1013.3
20260905093600 70 275 0.0 0.0 0.00 0.00 0.00 96 1013.2
20260905093100 71 275 0.0 0.0 0.00 0.00 0.00 96 1013.2
20260905092602 71 275 0.0 0.0 0.00 0.00 0.00 95 1013.3
20260905092059 71 275 0.0 0.0 0.00 0.00 0.00 95 1013.3
20260905091603 71 275 0.0 0.0 0.00 0.00 0.00 96 1013.4
20260905091057 71 275 0.0 0.0 0.00 0.00 0.00 95 1013.3
20260905090557 71 275 0.0 0.0 0.00 0.00 0.00 95 1013.2
20260905090057 71 275 0.0 0.0 0.00 0.00 0.00 95 1013.3
20260905085556 71 275 0.0 0.0 0.00 0.00 0.00 95 1013.2
20260905085054 72 275 0.0 0.0 0.00 0.00 0.00 95 1013.3
20260905084556 72 275 0.0 0.0 0.00 0.00 0.00 95 1013.4
20260905084056 72 275 0.0 0.0 0.00 0.00 0.00 95 1013.6
20260905083555 72 275 0.0 0.0 0.00 0.00 0.00 95 1013.6
20260905083054 72 275 0.0 0.0 0.00 0.00 0.00 95 1013.7
20260905082553 72 275 0.0 0.0 0.00 0.00 0.00 95 1013.6
20260905082053 72 275 0.0 0.0 0.00 0.00 0.00 95 1013.5
20260905081553 72 275 0.0 0.0 0.00 0.00 0.00 95 1013.5
20260905081054 72 275 0.0 0.0 0.00 0.00 0.00 95 1013.6
20260905080551 72 275 0.0 0.0 0.00 0.00 0.00 95 1013.7
20260905080050 72 275 0.0 0.0 0.00 0.00 0.00 95 1013.9
20260905075548 72 275 0.0 0.0 0.00 0.00 0.00 95 1014.1
20260905075053 72 275 0.0 0.0 0.00 0.00 0.00 95 1014.4
20260905074549 72 275 0.0 0.0 0.00 0.00 0.00 95 1014.1
20260905074050 72 275 0.0 0.0 0.00 0.00 0.00 95 1014.1
20260905073548 72 275 0.0 0.0 0.00 0.00 0.00 94 1014.1
20260905073047 72 275 0.0 0.0 0.00 0.00 0.00 94 1014.0
20260905072547 72 275 0.0 0.0 0.00 0.00 0.00 94 1013.9
20260905072047 72 275 0.0 0.0 0.00 0.00 0.00 94 1013.9
20260905071548 72 275 0.0 0.0 0.00 0.00 0.00 94 1014.0
20260905071046 72 275 0.0 0.0 0.00 0.00 0.00 94 1014.1
20260905070546 72 275 0.0 0.0 0.00 0.00 0.00 94 1014.2
20260905070045 72 275 0.0 0.0 0.00 0.00 0.00 94 1014.2
20260905065544 72 275 0.0 0.0 0.00 0.00 0.00 94 1014.3
20260905065044 72 275 0.0 0.0 0.00 0.00 0.00 94 1014.3
20260905064547 72 275 0.0 0.0 0.00 0.00 0.00 94 1014.3
20260905064043 72 275 0.0 0.0 0.00 0.00 0.00 94 1014.4
20260905063542 72 275 0.0 0.0 0.00 0.00 0.00 94 1014.3
20260905063042 73 275 0.0 0.0 0.00 0.00 0.00 94 1014.4
20260905062542 73 275 0.0 0.0 0.00 0.00 0.00 94 1014.5
20260905062041 73 275 0.0 0.0 0.00 0.00 0.00 94 1014.6
20260905061544 73 275 0.0 0.0 0.00 0.00 0.00 94 1014.6
20260905061040 73 275 0.0 0.0 0.00 0.00 0.00 94 1014.7
20260905060541 73 275 0.0 0.0 0.00 0.00 0.00 94 1014.8
20260905060039 73 275 0.0 0.0 0.00 0.00 0.00 94 1014.8
20260905055537 73 275 0.0 0.0 0.00 0.00 0.00 93 1014.9
20260905055038 73 275 0.0 0.0 0.00 0.00 0.00 93 1015.0
20260905054536 73 275 0.0 0.0 0.00 0.00 0.00 93 1015.1
20260905054035 73 275 0.0 0.0 0.00 0.00 0.00 93 1015.1
20260905053535 73 275 0.0 0.0 0.00 0.00 0.00 93 1015.2
20260905053036 73 275 0.0 0.0 0.00 0.00 0.00 93 1015.2
20260905052534 73 275 0.0 0.0 0.00 0.00 0.00 92 1015.1
20260905052035 74 275 0.0 0.0 0.00 0.00 0.00 92 1015.2
20260905051534 74 275 0.0 0.0 0.00 0.00 0.00 92 1015.2
20260905051033 74 275 0.0 0.0 0.00 0.00 0.00 92 1015.3
20260905050534 74 275 0.0 0.0 0.00 0.00 0.00 91 1015.3
20260905050032 74 275 0.0 0.0 0.00 0.00 0.00 91 1015.4
20260905045531 74 275 0.0 0.0 0.00 0.00 0.00 90 1015.4
20260905045031 74 275 0.0 0.0 0.00 0.00 0.00 90 1015.4
20260905044530 74 275 0.0 0.0 0.00 0.00 0.00 90 1015.3
20260905044030 75 275 0.0 0.0 0.00 0.00 0.00 90 1015.3
20260905043529 75 275 0.0 0.0 0.00 0.00 0.00 90 1015.4
20260905043028 75 275 0.0 0.0 0.00 0.00 0.00 89 1015.4
20260905042526 75 275 0.0 0.0 0.00 0.00 0.00 89 1015.3
20260905042026 75 275 0.0 0.0 0.00 0.00 0.00 88 1015.2
20260905041526 75 275 0.0 0.0 0.00 0.00 0.00 88 1015.1
20260905041025 75 275 0.0 0.0 0.00 0.00 0.00 88 1015.1
20260905040529 75 275 0.0 0.0 0.00 0.00 0.00 88 1015.1
20260905040026 75 275 0.0 0.0 0.00 0.00 0.00 88 1015.2
20260905035526 76 275 0.0 0.0 0.00 0.00 0.00 87 1015.1
20260905035023 76 275 0.0 0.0 0.00 0.00 0.00 87 1015.0
20260905034527 76 275 0.0 0.0 0.00 0.00 0.00 88 1014.9
20260905034022 76 275 0.0 0.0 0.00 0.00 0.00 88 1014.9
20260905033524 76 275 0.0 0.0 0.00 0.00 0.00 88 1014.8
20260905033023 76 275 0.0 0.0 0.00 0.00 0.00 88 1014.8
20260905032523 76 275 0.0 0.0 0.00 0.00 0.00 87 1014.7
20260905032026 76 275 0.0 0.0 0.00 0.00 0.00 87 1014.6
20260905031528 76 275 0.0 0.0 0.00 0.00 0.00 86 1014.8
20260905031022 76 275 0.0 0.0 0.00 0.00 0.00 86 1014.9
20260905030522 76 275 0.0 0.0 0.00 0.00 0.00 86 1014.8
20260905030029 76 275 0.0 0.0 0.00 0.00 0.00 86 1014.7
20260905025521 77 275 0.0 0.0 0.00 0.00 0.00 85 1014.7
20260905025023 77 275 0.0 0.0 0.00 0.00 0.00 84 1014.6
20260905024522 77 275 0.0 0.0 0.00 0.00 0.00 84 1014.6
20260905024021 77 275 0.0 0.0 0.00 0.00 0.00 84 1014.8
20260905023521 77 275 0.0 0.0 0.00 0.00 0.00 84 1014.7